Location: El Corozo
(10.5833°N, 66.9667°W)
Time: 10:00:52
(UTC+00:00)

CZ-2C R/B - Pass Details

Date: 23 May 2024
Orbit: 665 x 780 km, 98.4° (Epoch: 20 June)

Event Time Altitude Azimuth Distance (km) Brightness Sun altitude
Rises 08:18:57 0° 355° (N) 3,034 5.9 -24.5°
Reaches altitude 10° 08:21:25 10° 344° (NNW) 2,106 4.9 -24.0°
Enters shadow 08:23:43 23° 320° (NW) 1,415 3.7 -23.5°
